Location: Bukit Lungun
(2.6833°N, 113.9667°E)
Time: 10:49:18
(UTC+00:00)

Cosmos 2297 Rocket - Pass Details

Date: 02 March 2021
Orbit: 839 x 844 km, 71.0° (Epoch: 20 April)

Event Time Altitude Azimuth Distance (km) Brightness Sun altitude
Rises 21:23:13 0° 176° (S) 3,388 5.5 -18.4°
Reaches altitude 10° 21:25:56 10° 166° (SSE) 2,451 4.9 -17.7°
Maximum altitude 21:30:50 31° 105° (ESE) 1,435 4.2 -16.5°
Drops below altitude 10° 21:35:42 10° 44° (NE) 2,444 5.1 -15.3°
Sets 21:38:23 0° 34° (NE) 3,376 5.7 -14.6°
